Time,TemperatureF,DewpointF,PressureIn,WindDirection,WindDirectionDegrees,WindSpeedMPH,WindSpeedGustMPH,Humidity,HourlyPrecipIn,Conditions,Clouds,dailyrainin,SoftwareType,DateUTC
2013-08-27 00:18:00,71.0,68.0,29.59,WSW,252,0.0,0.0,90,0.00,,,-99.99,,2013-08-27 04:18:00,
2013-08-27 00:29:00,70.0,68.0,29.59,WSW,247,0.0,0.0,93,0.00,,,-99.99,,2013-08-27 04:29:00,
2013-08-27 00:54:00,70.0,68.0,29.56,SW,231,0.0,1.0,94,0.00,,,-99.99,,2013-08-27 04:54:00,
2013-08-27 01:23:00,70.0,68.0,29.56,SW,231,0.0,1.0,93,0.00,,,-99.99,,2013-08-27 05:23:00,
2013-08-27 01:52:00,71.0,68.0,29.56,WSW,243,0.0,1.0,90,0.00,,,-99.99,,2013-08-27 05:52:00,
2013-08-27 02:22:00,71.0,67.0,29.56,WSW,252,0.0,3.0,88,0.00,,,-99.99,,2013-08-27 06:22:00,
2013-08-27 02:52:00,70.0,67.0,29.56,West,264,0.0,1.0,91,0.00,,,-99.99,,2013-08-27 06:52:00,
2013-08-27 03:22:00,71.0,68.0,29.53,West,259,2.0,5.0,89,0.00,,,-99.99,,2013-08-27 07:22:00,
2013-08-27 03:52:00,70.0,67.0,29.53,WSW,255,2.0,4.0,91,0.00,,,-99.99,,2013-08-27 07:52:00,
2013-08-27 04:22:00,70.0,68.0,29.53,West,264,0.0,2.0,93,0.00,,,-99.99,,2013-08-27 08:22:00,
2013-08-27 04:52:00,69.0,68.0,29.53,West,263,0.0,2.0,97,0.00,,,-99.99,,2013-08-27 08:52:00,
2013-08-27 05:21:00,69.0,68.0,29.53,WSW,247,1.0,3.0,96,0.00,,,-99.99,,2013-08-27 09:21:00,
2013-08-27 05:54:00,69.0,68.0,29.51,WSW,250,0.0,1.0,95,0.00,,,-99.99,,2013-08-27 09:54:00,
2013-08-27 06:25:00,70.0,68.0,29.52,WNW,291,1.0,4.0,93,0.00,,,-99.99,,2013-08-27 10:25:00,
2013-08-27 06:53:00,71.0,68.0,29.50,WNW,295,1.0,3.0,90,0.00,,,-99.99,,2013-08-27 10:53:00,
2013-08-27 07:22:00,71.0,67.0,29.50,WNW,294,2.0,7.0,87,0.00,,,-99.99,,2013-08-27 11:22:00,
2013-08-27 07:52:00,71.0,68.0,29.53,WNW,303,2.0,5.0,90,0.00,,,-99.99,,2013-08-27 11:52:00,
2013-08-27 08:21:00,72.0,68.0,29.53,WNW,297,2.0,4.0,88,0.00,,,-99.99,,2013-08-27 12:21:00,
2013-08-27 08:52:00,72.0,68.0,29.53,WNW,292,2.0,5.0,86,0.00,,,-99.99,,2013-08-27 12:52:00,
2013-08-27 09:22:00,73.0,68.0,29.53,WNW,303,2.0,5.0,84,0.00,,,-99.99,,2013-08-27 13:22:00,
2013-08-27 09:52:00,74.0,68.0,29.53,WNW,293,1.0,3.0,82,0.00,,,-99.99,,2013-08-27 13:52:00,
2013-08-27 10:22:00,76.0,68.0,29.53,WNW,290,1.0,4.0,76,0.00,,,-99.99,,2013-08-27 14:22:00,
2013-08-27 10:53:00,79.0,68.0,29.53,WNW,300,2.0,4.0,70,0.00,,,-99.99,,2013-08-27 14:53:00,
2013-08-27 13:23:00,82.0,72.0,29.56,NNW,329,2.0,5.0,72,0.00,,,-99.99,,2013-08-27 17:23:00,
2013-08-27 13:52:00,83.0,69.0,29.56,ENE,72,3.0,9.0,63,0.00,,,-99.99,,2013-08-27 17:52:00,
2013-08-27 14:22:00,83.0,69.0,29.56,WNW,296,2.0,5.0,63,0.00,,,-99.99,,2013-08-27 18:22:00,
2013-08-27 14:52:00,84.0,68.0,29.56,WNW,299,2.0,6.0,58,0.00,,,-99.99,,2013-08-27 18:52:00,
2013-08-27 15:22:00,84.0,68.0,29.54,WNW,294,1.0,4.0,58,0.00,,,-99.99,,2013-08-27 19:22:00,
2013-08-27 15:52:00,83.0,67.0,29.53,WNW,290,2.0,4.0,58,0.00,,,-99.99,,2013-08-27 19:52:00,